Location: New Orleans
(29.9540°N, 90.0750°W)
Time: 20:34:44
(UTC-06:00)

Envisat - Visible Passes

Search period start: 24 January 2020 00:00
Search period end: 03 February 2020 00:00
Orbit: 764 x 766 km, 98.1° (Epoch: 24 January)

Date Brightness Start Highest point End Pass type
(mag) Time Alt. Az. Time Alt. Az. Time Alt. Az.
24 Jan 5.1 05:56:10 10° NE 06:00:39 31° E 06:05:07 10° SSE visible
24 Jan 5.0 18:43:39 10° SSW 18:48:05 30° W 18:52:31 10° NW visible
25 Jan 6.3 05:21:38 10° ENE 05:23:39 12° E 05:25:41 10° ESE visible
25 Jan 3.2 18:06:11 10° S 18:11:15 77° WSW 18:16:20 10° NNW visible
26 Jan 3.7 06:21:10 10° NNE 06:26:11 60° E 06:31:11 10° S visible
26 Jan 6.0 19:10:39 10° SW 19:13:42 16° W 19:16:46 10° WNW visible
27 Jan 5.6 05:45:15 10° NE 05:49:19 24° E 05:53:22 10° SSE visible
27 Jan 4.5 18:32:02 10° SSW 18:36:45 40° W 18:41:30 10° NNW visible
28 Jan 3.0 17:54:54 10° SSE 17:59:58 82° ENE 18:05:04 10° N visible
29 Jan 4.3 06:10:01 10° NNE 06:14:53 45° E 06:19:43 10° S visible
29 Jan 5.7 18:58:34 10° SW 19:02:20 21° W 19:06:08 10° NW visible
30 Jan 6.0 05:34:29 10° NE 05:37:57 18° E 05:41:24 10° SE visible
30 Jan 3.9 18:20:31 10° S 18:25:26 52° W 18:30:24 10° NNW visible
31 Jan 6.5 19:27:07 10° WSW 19:28:01 10° W 19:28:54 10° W visible
01 Feb 4.9 05:58:57 10° NNE 06:03:34 35° E 06:08:09 10° SSE visible
01 Feb 5.3 18:46:44 10° SSW 18:50:59 27° W 18:55:17 10° NW visible
02 Feb 6.2 05:24:02 10° ENE 05:26:35 14° E 05:29:08 10° SE visible
02 Feb 3.4 18:09:06 10° S 18:14:08 69° WSW 18:19:13 10° NNW visible
